| time (UTC) | temp F | wind direction | speed knots | gust knots | rain 1hr in | rain 24hr in | rain mn in | humidity % | barometer mb |
| 20260509021512 | 52 | 101 | 1.7 | 5.2 | 0.00 | 0.00 | 0.00 | 62 | 1006.8 |
| 20260509021006 | 52 | 101 | 2.6 | 3.5 | 0.00 | 0.00 | 0.00 | 62 | 1014.2 |
| 20260509020004 | 52 | 101 | 1.7 | 2.6 | 0.00 | 0.00 | 0.00 | 61 | 1006.6 |
| 20260509015506 | 53 | 101 | 1.7 | 2.6 | 0.00 | 0.00 | 0.00 | 60 | 1014.0 |
| 20260509015006 | 53 | 101 | 2.6 | 2.6 | 0.00 | 0.00 | 0.00 | 61 | 1013.9 |
| 20260509014501 | 54 | 101 | 1.7 | 2.6 | 0.00 | 0.00 | 0.00 | 59 | 1006.4 |
| 20260509013505 | 55 | 101 | 1.7 | 2.6 | 0.00 | 0.00 | 0.00 | 56 | 1013.9 |
| 20260509013011 | 56 | 101 | 1.7 | 3.5 | 0.00 | 0.00 | 0.00 | 54 | 1006.3 |
| 20260509012505 | 57 | 101 | 2.6 | 3.5 | 0.00 | 0.00 | 0.00 | 54 | 1013.6 |
| 20260509011506 | 58 | 94 | 2.6 | 5.2 | 0.00 | 0.00 | 0.00 | 51 | 1013.8 |
| 20260509011504 | 58 | 94 | 1.7 | 5.2 | 0.00 | 0.00 | 0.00 | 51 | 1006.2 |
| 20260509011006 | 58 | 94 | 1.7 | 2.6 | 0.00 | 0.00 | 0.00 | 50 | 1013.9 |
| 20260509010459 | 58 | 94 | 0.9 | 2.6 | 0.00 | 0.00 | 0.00 | 50 | 1014.0 |
| 20260509010006 | 58 | 94 | 1.7 | 5.2 | 0.00 | 0.00 | 0.00 | 48 | 1013.8 |
| 20260509010004 | 58 | 94 | 0.9 | 5.2 | 0.00 | 0.00 | 0.00 | 48 | 1006.2 |
| 20260509005505 | 58 | 94 | 2.6 | 6.1 | 0.00 | 0.00 | 0.00 | 46 | 1013.9 |
| 20260509004514 | 59 | 93 | 5.2 | 9.6 | 0.00 | 0.00 | 0.00 | 45 | 1006.2 |
| 20260509004505 | 59 | 93 | 5.2 | 9.6 | 0.00 | 0.00 | 0.00 | 45 | 1013.9 |
| 20260509004006 | 60 | 80 | 7.0 | 9.6 | 0.00 | 0.00 | 0.00 | 44 | 1013.8 |
| 20260509003503 | 61 | 98 | 7.0 | 9.6 | 0.00 | 0.00 | 0.00 | 43 | 1013.7 |
| 20260509003006 | 61 | 78 | 6.1 | 8.7 | 0.00 | 0.00 | 0.00 | 43 | 1013.7 |
| 20260509003004 | 61 | 78 | 5.2 | 8.7 | 0.00 | 0.00 | 0.00 | 43 | 1005.9 |
| 20260509002505 | 61 | 109 | 3.5 | 7.0 | 0.00 | 0.00 | 0.00 | 43 | 1013.7 |
| 20260509002005 | 61 | 76 | 3.5 | 7.8 | 0.00 | 0.00 | 0.00 | 43 | 1013.7 |
| 20260509001506 | 61 | 69 | 5.2 | 7.8 | 0.00 | 0.00 | 0.00 | 42 | 1013.8 |
| 20260509001504 | 61 | 69 | 4.3 | 7.8 | 0.00 | 0.00 | 0.00 | 42 | 1006.1 |
| 20260509001006 | 62 | 42 | 4.3 | 7.8 | 0.00 | 0.00 | 0.00 | 42 | 1013.8 |
| 20260509000505 | 62 | 69 | 5.2 | 7.0 | 0.00 | 0.00 | 0.00 | 41 | 1013.8 |
| 20260509000005 | 62 | 17 | 2.6 | 5.2 | 0.00 | 0.00 | 0.00 | 40 | 1006.0 |
| 20260508235505 | 62 | 52 | 2.6 | 7.8 | 0.00 | 0.00 | 0.00 | 42 | 1013.8 |
| 20260508235007 | 62 | 39 | 3.5 | 8.7 | 0.00 | 0.00 | 0.00 | 40 | 1013.8 |
| 20260508234505 | 62 | 30 | 2.6 | 8.7 | 0.00 | 0.00 | 0.00 | 39 | 1013.7 |
| 20260508234503 | 62 | 30 | 2.6 | 8.7 | 0.00 | 0.00 | 0.00 | 39 | 1005.9 |
| 20260508233007 | 62 | 23 | 6.1 | 9.6 | 0.00 | 0.00 | 0.00 | 40 | 1013.6 |
| 20260508233004 | 62 | 23 | 5.2 | 9.6 | 0.00 | 0.00 | 0.00 | 40 | 1005.9 |
| 20260508232504 | 62 | 5 | 4.3 | 9.6 | 0.00 | 0.00 | 0.00 | 41 | 1013.7 |
| 20260508232007 | 62 | 323 | 1.7 | 9.6 | 0.00 | 0.00 | 0.00 | 41 | 1013.7 |
| 20260508231504 | 62 | 360 | 6.1 | 11.3 | 0.00 | 0.00 | 0.00 | 42 | 1005.9 |
| 20260508231006 | 62 | 61 | 7.0 | 11.3 | 0.00 | 0.00 | 0.00 | 42 | 1013.7 |
| 20260508230506 | 62 | 84 | 6.1 | 8.7 | 0.00 | 0.00 | 0.00 | 41 | 1013.7 |
| 20260508230013 | 62 | 49 | 4.3 | 9.6 | 0.00 | 0.00 | 0.00 | 42 | 1005.8 |
| 20260508225459 | 62 | 53 | 7.0 | 9.6 | 0.00 | 0.00 | 0.00 | 43 | 1013.6 |
| 20260508225000 | 62 | 17 | 2.6 | 9.6 | 0.00 | 0.00 | 0.00 | 43 | 1013.6 |
| 20260508224506 | 62 | 89 | 4.3 | 9.6 | 0.00 | 0.00 | 0.00 | 42 | 1013.7 |
| 20260508224504 | 62 | 89 | 4.3 | 9.6 | 0.00 | 0.00 | 0.00 | 42 | 1005.9 |
| 20260508224008 | 61 | 13 | 3.5 | 10.4 | 0.00 | 0.00 | 0.00 | 41 | 1013.8 |
| 20260508223007 | 62 | 71 | 7.0 | 11.3 | 0.00 | 0.00 | 0.00 | 40 | 1013.8 |
| 20260508223004 | 62 | 71 | 7.0 | 11.3 | 0.00 | 0.00 | 0.00 | 40 | 1006.1 |
| 20260508222505 | 62 | 17 | 6.1 | 11.3 | 0.00 | 0.00 | 0.00 | 41 | 1014.0 |
| 20260508222006 | 61 | 17 | 2.6 | 7.8 | 0.00 | 0.00 | 0.00 | 43 | 1013.8 |
| 20260508221501 | 62 | 94 | 4.3 | 10.4 | 0.00 | 0.00 | 0.00 | 41 | 1006.1 |
| 20260508221006 | 62 | 33 | 5.2 | 10.4 | 0.00 | 0.00 | 0.00 | 43 | 1014.0 |
| 20260508220506 | 62 | 40 | 3.5 | 9.6 | 0.00 | 0.00 | 0.00 | 42 | 1013.9 |
| 20260508220104 | 62 | 56 | 4.3 | 12.2 | 0.00 | 0.00 | 0.00 | 43 | 1006.3 |
| 20260508220000 | 62 | 64 | 6.1 | 12.2 | 0.00 | 0.00 | 0.00 | 42 | 1014.1 |
| 20260508215505 | 62 | 24 | 4.3 | 11.3 | 0.00 | 0.00 | 0.00 | 43 | 1014.0 |
| 20260508214505 | 61 | 44 | 2.6 | 9.6 | 0.00 | 0.00 | 0.00 | 44 | 1014.1 |
| 20260508214007 | 62 | 87 | 6.1 | 11.3 | 0.00 | 0.00 | 0.00 | 42 | 1014.2 |
| 20260508213006 | 63 | 33 | 4.3 | 9.6 | 0.00 | 0.00 | 0.00 | 42 | 1014.2 |
| 20260508213004 | 63 | 33 | 3.5 | 9.6 | 0.00 | 0.00 | 0.00 | 42 | 1006.4 |
| 20260508212506 | 63 | 17 | 2.6 | 16.5 | 0.00 | 0.00 | 0.00 | 39 | 1014.2 |
| 20260508212007 | 62 | 13 | 2.6 | 8.7 | 0.00 | 0.00 | 0.00 | 45 | 1014.2 |
| 20260508211507 | 62 | 31 | 3.5 | 10.4 | 0.00 | 0.00 | 0.00 | 44 | 1006.4 |
| 20260508211505 | 62 | 31 | 4.3 | 10.4 | 0.00 | 0.00 | 0.00 | 44 | 1014.2 |
| 20260508211009 | 62 | 355 | 6.1 | 10.4 | 0.00 | 0.00 | 0.00 | 45 | 1014.3 |
| 20260508210505 | 61 | 27 | 2.6 | 12.2 | 0.00 | 0.00 | 0.00 | 43 | 1014.4 |
| 20260508210006 | 61 | 51 | 7.8 | 13.9 | 0.00 | 0.00 | 0.00 | 44 | 1014.4 |
| 20260508210004 | 61 | 51 | 7.0 | 13.9 | 0.00 | 0.00 | 0.00 | 44 | 1006.6 |
| 20260508205505 | 61 | 45 | 7.8 | 13.9 | 0.00 | 0.00 | 0.00 | 44 | 1014.4 |
| 20260508205006 | 62 | 22 | 7.0 | 11.3 | 0.00 | 0.00 | 0.00 | 42 | 1014.4 |
| 20260508204505 | 62 | 9 | 3.5 | 10.4 | 0.00 | 0.00 | 0.00 | 45 | 1006.6 |
| 20260508204007 | 62 | 32 | 6.1 | 13.0 | 0.00 | 0.00 | 0.00 | 47 | 1014.5 |
| 20260508203506 | 61 | 43 | 6.1 | 14.8 | 0.00 | 0.00 | 0.00 | 44 | 1014.5 |
| 20260508203007 | 61 | 348 | 7.8 | 14.8 | 0.00 | 0.00 | 0.00 | 48 | 1014.5 |
| 20260508203004 | 61 | 348 | 7.0 | 14.8 | 0.00 | 0.00 | 0.00 | 48 | 1006.7 |
| 20260508202506 | 60 | 59 | 7.0 | 15.6 | 0.00 | 0.00 | 0.00 | 46 | 1014.5 |
| 20260508202006 | 61 | 32 | 9.6 | 15.6 | 0.00 | 0.00 | 0.00 | 48 | 1014.6 |
| 20260508201506 | 60 | 20 | 6.1 | 12.2 | 0.00 | 0.00 | 0.00 | 48 | 1014.6 |
| 20260508201504 | 60 | 20 | 6.1 | 12.2 | 0.00 | 0.00 | 0.00 | 48 | 1006.9 |
| 20260508200503 | 60 | 80 | 4.3 | 13.9 | 0.00 | 0.00 | 0.00 | 47 | 1014.8 |
| 20260508200004 | 60 | 333 | 3.5 | 13.9 | 0.00 | 0.00 | 0.00 | 45 | 1007.2 |
| 20260508195505 | 60 | 5 | 3.5 | 10.4 | 0.00 | 0.00 | 0.00 | 47 | 1015.0 |
| 20260508195006 | 59 | 12 | 6.1 | 12.2 | 0.00 | 0.00 | 0.00 | 47 | 1015.0 |
| 20260508194506 | 60 | 27 | 5.2 | 14.8 | 0.00 | 0.00 | 0.00 | 44 | 1007.4 |
| 20260508194006 | 60 | 37 | 6.1 | 13.9 | 0.00 | 0.00 | 0.00 | 47 | 1015.1 |
| 20260508193506 | 60 | 17 | 8.7 | 13.9 | 0.00 | 0.00 | 0.00 | 45 | 1015.2 |
| 20260508193006 | 60 | 324 | 5.2 | 11.3 | 0.00 | 0.00 | 0.00 | 44 | 1015.1 |
| 20260508193003 | 60 | 324 | 4.3 | 11.3 | 0.00 | 0.00 | 0.00 | 44 | 1007.4 |
| 20260508192008 | 60 | 346 | 4.3 | 12.2 | 0.00 | 0.00 | 0.00 | 46 | 1015.1 |
| 20260508191506 | 59 | 49 | 5.2 | 12.2 | 0.00 | 0.00 | 0.00 | 53 | 1015.1 |
| 20260508191006 | 59 | 360 | 7.8 | 12.2 | 0.00 | 0.00 | 0.00 | 48 | 1015.2 |
| 20260508190505 | 59 | 26 | 1.7 | 10.4 | 0.00 | 0.00 | 0.00 | 48 | 1015.2 |
| 20260508190006 | 59 | 311 | 4.3 | 10.4 | 0.00 | 0.00 | 0.00 | 47 | 1015.3 |
| 20260508190004 | 59 | 311 | 4.3 | 10.4 | 0.00 | 0.00 | 0.00 | 47 | 1007.7 |
| 20260508185007 | 59 | 21 | 7.8 | 11.3 | 0.00 | 0.00 | 0.00 | 46 | 1015.4 |
| 20260508184506 | 59 | 5 | 5.2 | 13.9 | 0.00 | 0.00 | 0.00 | 49 | 1015.4 |
| 20260508184504 | 59 | 5 | 4.3 | 13.9 | 0.00 | 0.00 | 0.00 | 49 | 1007.8 |
| 20260508184006 | 59 | 355 | 6.1 | 13.9 | 0.00 | 0.00 | 0.00 | 44 | 1015.4 |
| 20260508183458 | 59 | 19 | 7.8 | 12.2 | 0.00 | 0.00 | 0.00 | 47 | 1015.5 |
| 20260508183006 | 58 | 16 | 5.2 | 13.9 | 0.00 | 0.00 | 0.00 | 48 | 1015.4 |
| 20260508182505 | 58 | 355 | 2.6 | 13.9 | 0.00 | 0.00 | 0.00 | 49 | 1015.5 |
| 20260508182005 | 58 | 13 | 8.7 | 13.0 | 0.00 | 0.00 | 0.00 | 49 | 1015.4 |
| 20260508181505 | 58 | 63 | 6.1 | 13.0 | 0.00 | 0.00 | 0.00 | 47 | 1015.6 |
| 20260508181007 | 59 | 22 | 7.0 | 13.0 | 0.00 | 0.00 | 0.00 | 48 | 1015.6 |
| 20260508180505 | 59 | 355 | 2.6 | 11.3 | 0.00 | 0.00 | 0.00 | 50 | 1015.7 |
| 20260508180007 | 58 | 348 | 3.5 | 11.3 | 0.00 | 0.00 | 0.00 | 47 | 1015.7 |
| 20260508180004 | 58 | 348 | 3.5 | 11.3 | 0.00 | 0.00 | 0.00 | 47 | 1008.2 |
| 20260508175505 | 58 | 336 | 2.6 | 10.4 | 0.00 | 0.00 | 0.00 | 49 | 1015.7 |
| 20260508175006 | 57 | 38 | 5.2 | 11.3 | 0.00 | 0.00 | 0.00 | 48 | 1015.8 |
| 20260508174506 | 57 | 28 | 7.0 | 11.3 | 0.00 | 0.00 | 0.00 | 47 | 1008.4 |
| 20260508174007 | 57 | 31 | 5.2 | 11.3 | 0.00 | 0.00 | 0.00 | 51 | 1015.9 |
| 20260508173505 | 58 | 28 | 7.0 | 11.3 | 0.00 | 0.00 | 0.00 | 48 | 1016.0 |
| 20260508173007 | 57 | 18 | 4.3 | 12.2 | 0.00 | 0.00 | 0.00 | 50 | 1015.9 |
| 20260508173004 | 57 | 18 | 3.5 | 12.2 | 0.00 | 0.00 | 0.00 | 50 | 1008.6 |
| 20260508172505 | 57 | 360 | 4.3 | 12.2 | 0.00 | 0.00 | 0.00 | 49 | 1016.0 |
| 20260508172007 | 57 | 306 | 5.2 | 12.2 | 0.00 | 0.00 | 0.00 | 45 | 1015.9 |
| 20260508171504 | 57 | 50 | 2.6 | 6.1 | 0.00 | 0.00 | 0.00 | 47 | 1008.5 |
| 20260508171006 | 57 | 13 | 3.5 | 10.4 | 0.00 | 0.00 | 0.00 | 50 | 1015.9 |
| 20260508170505 | 57 | 5 | 5.2 | 10.4 | 0.00 | 0.00 | 0.00 | 48 | 1016.0 |
| 20260508170007 | 56 | 335 | 4.3 | 7.8 | 0.00 | 0.00 | 0.00 | 50 | 1016.1 |
| 20260508170004 | 56 | 335 | 3.5 | 7.8 | 0.00 | 0.00 | 0.00 | 50 | 1008.8 |
| 20260508165505 | 56 | 321 | 3.5 | 8.7 | 0.00 | 0.00 | 0.00 | 52 | 1016.0 |
| 20260508165006 | 55 | 304 | 5.2 | 10.4 | 0.00 | 0.00 | 0.00 | 54 | 1016.0 |
| 20260508164603 | 55 | 42 | 5.2 | 10.4 | 0.00 | 0.00 | 0.00 | 52 | 1008.7 |
| 20260508164506 | 55 | 349 | 6.1 | 10.4 | 0.00 | 0.00 | 0.00 | 51 | 1016.0 |
| 20260508164504 | 55 | 349 | 5.2 | 10.4 | 0.00 | 0.00 | 0.00 | 51 | 1008.7 |
| 20260508164006 | 54 | 311 | 3.5 | 10.4 | 0.00 | 0.00 | 0.00 | 53 | 1016.1 |
| 20260508163506 | 54 | 317 | 5.2 | 11.3 | 0.00 | 0.00 | 0.00 | 53 | 1016.1 |
| 20260508163006 | 54 | 339 | 6.1 | 13.0 | 0.00 | 0.00 | 0.00 | 54 | 1016.1 |
| 20260508163003 | 54 | 339 | 5.2 | 13.0 | 0.00 | 0.00 | 0.00 | 54 | 1008.8 |
| 20260508162506 | 54 | 350 | 7.8 | 13.0 | 0.00 | 0.00 | 0.00 | 55 | 1016.1 |
| 20260508162007 | 54 | 305 | 6.1 | 8.7 | 0.00 | 0.00 | 0.00 | 55 | 1016.1 |
| 20260508161505 | 53 | 316 | 3.5 | 9.6 | 0.00 | 0.00 | 0.00 | 58 | 1008.8 |
| 20260508161006 | 53 | 342 | 4.3 | 10.4 | 0.00 | 0.00 | 0.00 | 59 | 1016.1 |
| 20260508160505 | 53 | 324 | 7.0 | 10.4 | 0.00 | 0.00 | 0.00 | 58 | 1016.1 |
| 20260508160011 | 52 | 315 | 4.3 | 8.7 | 0.00 | 0.00 | 0.00 | 63 | 1008.7 |
| 20260508160007 | 52 | 315 | 4.3 | 8.7 | 0.00 | 0.00 | 0.00 | 63 | 1016.1 |
| 20260508155505 | 52 | 296 | 3.5 | 9.6 | 0.00 | 0.00 | 0.00 | 64 | 1016.3 |
| 20260508155007 | 52 | 312 | 7.0 | 9.6 | 0.00 | 0.00 | 0.00 | 66 | 1016.3 |
| 20260508154505 | 51 | 297 | 3.5 | 9.6 | 0.00 | 0.00 | 0.00 | 67 | 1016.2 |
| 20260508154502 | 51 | 297 | 2.6 | 9.6 | 0.00 | 0.00 | 0.00 | 67 | 1008.9 |
| 20260508153505 | 51 | 303 | 2.6 | 9.6 | 0.00 | 0.00 | 0.00 | 69 | 1016.3 |
| 20260508153007 | 51 | 294 | 5.2 | 9.6 | 0.00 | 0.00 | 0.00 | 67 | 1016.3 |
| 20260508153004 | 51 | 294 | 5.2 | 9.6 | 0.00 | 0.00 | 0.00 | 67 | 1009.0 |
| 20260508152506 | 51 | 304 | 4.3 | 9.6 | 0.00 | 0.00 | 0.00 | 70 | 1016.3 |
| 20260508152006 | 50 | 310 | 5.2 | 10.4 | 0.00 | 0.00 | 0.00 | 69 | 1016.4 |
| 20260508151510 | 50 | 319 | 4.3 | 10.4 | 0.00 | 0.00 | 0.00 | 69 | 1009.1 |
| 20260508151506 | 50 | 319 | 4.3 | 10.4 | 0.00 | 0.00 | 0.00 | 69 | 1016.4 |
| 20260508151006 | 50 | 288 | 5.2 | 11.3 | 0.00 | 0.00 | 0.00 | 71 | 1016.3 |
| 20260508150458 | 49 | 310 | 7.8 | 11.3 | 0.00 | 0.00 | 0.00 | 71 | 1016.4 |
| 20260508150011 | 49 | 227 | 3.5 | 8.7 | 0.00 | 0.00 | 0.00 | 74 | 1009.3 |
| 20260508150008 | 49 | 227 | 4.3 | 8.7 | 0.00 | 0.00 | 0.00 | 74 | 1016.5 |
| 20260508145506 | 49 | 282 | 3.5 | 8.7 | 0.00 | 0.00 | 0.00 | 75 | 1016.4 |
| 20260508145006 | 48 | 243 | 3.5 | 9.6 | 0.00 | 0.00 | 0.00 | 77 | 1016.3 |
| 20260508144504 | 47 | 290 | 6.1 | 10.4 | 0.00 | 0.00 | 0.00 | 76 | 1009.3 |
| 20260508144000 | 47 | 310 | 6.1 | 10.4 | 0.00 | 0.00 | 0.00 | 78 | 1016.5 |
| 20260508143506 | 46 | 290 | 7.0 | 11.3 | 0.00 | 0.00 | 0.00 | 80 | 1016.6 |
| 20260508143006 | 46 | 317 | 7.0 | 10.4 | 0.00 | 0.00 | 0.00 | 81 | 1009.6 |
| 20260508142505 | 46 | 284 | 4.3 | 8.7 | 0.00 | 0.00 | 0.00 | 81 | 1016.6 |
| 20260508142007 | 46 | 329 | 5.2 | 9.6 | 0.00 | 0.00 | 0.00 | 82 | 1016.7 |
| 20260508141505 | 45 | 5 | 5.2 | 10.4 | 0.00 | 0.00 | 0.00 | 84 | 1016.7 |
| 20260508141007 | 45 | 338 | 5.2 | 10.4 | 0.00 | 0.00 | 0.00 | 84 | 1016.7 |
| 20260508140506 | 44 | 319 | 133.8 | 569.2 | 2.02 | 0.00 | 0.00 | 87 | |
| 20260508140008 | 44 | 348 | 3.5 | 9.6 | 0.00 | 0.00 | 0.00 | 88 | 1010.1 |
| 20260508135505 | 43 | 321 | 4.3 | 9.6 | 0.00 | 0.00 | 0.00 | 88 | 1016.9 |
| 20260508135005 | 43 | 355 | 2.6 | 7.0 | 0.00 | 0.00 | 0.00 | 89 | 1016.8 |
| 20260508134505 | 43 | 355 | 3.5 | 7.8 | 0.00 | 0.00 | 0.00 | 90 | 1016.8 |
| 20260508134503 | 43 | 355 | 2.6 | 7.8 | 0.00 | 0.00 | 0.00 | 90 | 1010.1 |
| 20260508134007 | 42 | 283 | 4.3 | 7.8 | 0.00 | 0.00 | 0.00 | 90 | 1016.8 |
| 20260508133505 | 42 | 324 | 4.3 | 7.8 | 0.00 | 0.00 | 0.00 | 91 | 1016.7 |
| 20260508133006 | 42 | 355 | 2.6 | 7.0 | 0.00 | 0.00 | 0.00 | 92 | 1016.6 |
| 20260508133004 | 42 | 355 | 1.7 | 7.0 | 0.00 | 0.00 | 0.00 | 92 | 1009.9 |
| 20260508132505 | 41 | 330 | 3.5 | 7.0 | 0.00 | 0.00 | 0.00 | 92 | 1016.4 |
| 20260508132007 | 41 | 322 | 1.7 | 7.0 | 0.00 | 0.00 | 0.00 | 93 | 1016.6 |
| 20260508131505 | 41 | 328 | 2.6 | 8.7 | 0.00 | 0.00 | 0.00 | 93 | 1016.7 |
| 20260508130507 | 40 | 321 | 2.6 | 5.2 | 0.00 | 0.00 | 0.00 | 95 | 1016.5 |
| 20260508130007 | 40 | 319 | 2.6 | 5.2 | 0.00 | 0.00 | 0.00 | 95 | 1016.3 |
| 20260508130004 | 40 | 319 | 2.6 | 5.2 | 0.00 | 0.00 | 0.00 | 95 | 1009.7 |
| 20260508125507 | 39 | 5 | 0.9 | 2.6 | 0.00 | 0.00 | 0.00 | 94 | 1016.3 |
| 20260508125000 | 38 | 17 | 0.9 | 2.6 | 0.00 | 0.00 | 0.00 | 94 | 1016.0 |
| 20260508124505 | 38 | 329 | 0.9 | 1.7 | 0.00 | 0.00 | 0.00 | 94 | 1015.8 |
| 20260508124503 | 38 | 329 | 0.0 | 1.7 | 0.00 | 0.00 | 0.00 | 94 | 1009.2 |
| 20260508124006 | 37 | 329 | 0.0 | 0.0 | 0.00 | 0.00 | 0.00 | 94 | 1015.7 |
| 20260508123504 | 37 | 329 | 0.0 | 0.0 | 0.00 | 0.00 | 0.00 | 93 | 1015.7 |
| 20260508123007 | 37 | 329 | 0.0 | 0.0 | 0.00 | 0.00 | 0.00 | 93 | 1015.4 |
| 20260508123005 | 37 | 329 | 0.0 | 0.0 | 0.00 | 0.00 | 0.00 | 93 | 1008.8 |
| 20260508122505 | 37 | 329 | 0.0 | 0.9 | 0.00 | 0.00 | 0.00 | 93 | 1015.4 |
| 20260508122007 | 37 | 329 | 0.0 | 0.0 | 0.00 | 0.00 | 0.00 | 94 | 1015.2 |
| 20260508121505 | 37 | 329 | 0.0 | 0.9 | 0.00 | 0.00 | 0.00 | 93 | 1015.1 |
| 20260508121503 | 37 | 329 | 0.0 | 0.9 | 0.00 | 0.00 | 0.00 | 93 | 1008.5 |
| 20260508120507 | 36 | 329 | 0.0 | 1.7 | 0.00 | 0.00 | 0.00 | 93 | 1014.8 |
| 20260508120004 | 36 | 329 | 0.0 | 1.7 | 0.00 | 0.00 | 0.00 | 92 | 1008.2 |
| 20260508115505 | 36 | 329 | 0.0 | 1.7 | 0.00 | 0.00 | 0.00 | 93 | 1014.8 |
| 20260508115006 | 36 | 329 | 0.0 | 1.7 | 0.00 | 0.00 | 0.00 | 92 | 1014.7 |
| 20260508114506 | 35 | 329 | 0.0 | 0.0 | 0.00 | 0.00 | 0.00 | 92 | 1014.7 |
| 20260508114503 | 35 | 329 | 0.0 | 0.0 | 0.00 | 0.00 | 0.00 | 92 | 1008.1 |
| 20260508114006 | 35 | 329 | 0.0 | 0.0 | 0.00 | 0.00 | 0.00 | 91 | 1014.8 |
| 20260508113006 | 35 | 329 | 0.9 | 2.6 | 0.00 | 0.00 | 0.00 | 90 | 1014.7 |
| 20260508113004 | 35 | 329 | 0.0 | 2.6 | 0.00 | 0.00 | 0.00 | 90 | 1008.1 |
| 20260508112505 | 36 | 329 | 0.9 | 2.6 | 0.00 | 0.00 | 0.00 | 89 | 1014.6 |
| 20260508111505 | 36 | 15 | 0.9 | 7.0 | 0.00 | 0.00 | 0.00 | 88 | 1014.7 |
| 20260508111005 | 37 | 355 | 1.7 | 4.3 | 0.00 | 0.00 | 0.00 | 90 | 1014.4 |
| 20260508110006 | 37 | 206 | 0.9 | 3.5 | 0.00 | 0.00 | 0.00 | 91 | 1013.8 |
| 20260508110003 | 37 | 206 | 0.0 | 3.5 | 0.00 | 0.00 | 0.00 | 91 | 1007.3 |
| 20260508105505 | 37 | 173 | 2.6 | 3.5 | 0.00 | 0.00 | 0.00 | 91 | 1013.8 |
| 20260508105007 | 36 | 215 | 1.7 | 3.5 | 0.00 | 0.00 | 0.00 | 91 | 1013.8 |
| 20260508104505 | 36 | 215 | 1.7 | 4.3 | 0.00 | 0.00 | 0.00 | 89 | 1013.8 |
| 20260508104503 | 36 | 215 | 0.9 | 4.3 | 0.00 | 0.00 | 0.00 | 89 | 1007.3 |
| 20260508104005 | 36 | 215 | 1.7 | 4.3 | 0.00 | 0.00 | 0.00 | 89 | 1013.8 |
| 20260508103505 | 36 | 227 | 3.5 | 4.3 | 0.00 | 0.00 | 0.00 | 90 | 1013.8 |
| 20260508103006 | 36 | 200 | 2.6 | 6.1 | 0.00 | 0.00 | 0.00 | 90 | 1013.8 |
| 20260508102505 | 36 | 208 | 4.3 | 6.1 | 0.00 | 0.00 | 0.00 | 90 | 1014.0 |
| 20260508102006 | 36 | 221 | 3.5 | 5.2 | 0.00 | 0.00 | 0.00 | 90 | 1014.0 |
| 20260508101505 | 36 | 219 | 2.6 | 4.3 | 0.00 | 0.00 | 0.00 | 90 | 1013.9 |
| 20260508101005 | 36 | 144 | 0.9 | 2.6 | 0.00 | 0.00 | 0.00 | 90 | 1013.9 |
| 20260508100506 | 36 | 144 | 1.7 | 2.6 | 0.00 | 0.00 | 0.00 | 89 | 1013.9 |
| 20260508100004 | 36 | 144 | 0.9 | 2.6 | 0.00 | 0.00 | 0.00 | 89 | 1007.8 |
| 20260508095506 | 36 | 144 | 0.9 | 1.7 | 0.00 | 0.00 | 0.00 | 87 | 1014.1 |
| 20260508095007 | 37 | 144 | 0.0 | 0.0 | 0.00 | 0.00 | 0.00 | 88 | 1014.1 |
| 20260508094507 | 37 | 144 | 0.0 | 0.0 | 0.00 | 0.00 | 0.00 | 89 | 1014.0 |
| 20260508094504 | 37 | 144 | 0.0 | 0.0 | 0.00 | 0.00 | 0.00 | 89 | 1007.8 |
| 20260508094007 | 37 | 144 | 133.8 | 569.2 | 2.02 | 0.00 | 0.00 | 89 | |
| 20260508093507 | 37 | 144 | 0.0 | 0.0 | 0.00 | 0.00 | 0.00 | 88 | 1014.2 |
| 20260508093006 | 37 | 144 | 0.0 | 0.9 | 0.00 | 0.00 | 0.00 | 88 | 1014.2 |
| 20260508093003 | 37 | 144 | 0.0 | 0.9 | 0.00 | 0.00 | 0.00 | 88 | 1008.0 |
| 20260508092505 | 37 | 144 | 0.0 | 3.5 | 0.00 | 0.00 | 0.00 | 86 | 1014.2 |
| 20260508092006 | 38 | 144 | 1.7 | 3.5 | 0.00 | 0.00 | 0.00 | 86 | 1014.2 |
| 20260508091505 | 38 | 144 | 0.9 | 2.6 | 0.00 | 0.00 | 0.00 | 85 | 1014.2 |
| 20260508091503 | 38 | 144 | 0.9 | 2.6 | 0.00 | 0.00 | 0.00 | 85 | 1008.0 |
| 20260508091007 | 38 | 144 | 0.0 | 0.0 | 0.00 | 0.00 | 0.00 | 83 | 1014.2 |
| 20260508090505 | 39 | 144 | 0.0 | 0.9 | 0.00 | 0.00 | 0.00 | 84 | 1014.2 |
| 20260508090009 | 40 | 144 | 0.9 | 3.5 | 0.00 | 0.00 | 0.00 | 86 | 1014.2 |
| 20260508085504 | 39 | 144 | 2.6 | 3.5 | 0.00 | 0.00 | 0.00 | 87 | 1014.2 |
| 20260508085006 | 39 | 144 | 0.9 | 1.7 | 0.00 | 0.00 | 0.00 | 87 | 1014.4 |
| 20260508084505 | 39 | 144 | 0.0 | 0.0 | 0.00 | 0.00 | 0.00 | 85 | 1014.4 |
| 20260508084006 | 39 | 144 | 0.0 | 0.0 | 0.00 | 0.00 | 0.00 | 83 | 1014.5 |
| 20260508083506 | 39 | 144 | 0.0 | 1.7 | 0.00 | 0.00 | 0.00 | 83 | 1014.5 |
| 20260508083006 | 40 | 144 | 0.0 | 2.6 | 0.00 | 0.00 | 0.00 | 83 | 1008.1 |
| 20260508082505 | 40 | 144 | 1.7 | 3.5 | 0.00 | 0.00 | 0.00 | 84 | 1014.2 |
| 20260508082006 | 40 | 144 | 1.7 | 3.5 | 0.00 | 0.00 | 0.00 | 83 | 1014.2 |
| 20260508081505 | 41 | 144 | 1.7 | 3.5 | 0.00 | 0.00 | 0.00 | 83 | 1014.3 |
| 20260508081503 | 41 | 144 | 1.7 | 3.5 | 0.00 | 0.00 | 0.00 | 83 | 1008.1 |
| 20260508081007 | 41 | 144 | 2.6 | 3.5 | 0.00 | 0.00 | 0.00 | 83 | 1014.4 |
| 20260508080505 | 41 | 144 | 0.9 | 2.6 | 0.00 | 0.00 | 0.00 | 80 | 1014.5 |
| 20260508080010 | 42 | 144 | 0.0 | 2.6 | 0.00 | 0.00 | 0.00 | 78 | 1008.4 |
| 20260508080008 | 42 | 144 | 0.0 | 2.6 | 0.00 | 0.00 | 0.00 | 78 | 1014.6 |
| 20260508074515 | 43 | 144 | 1.7 | 5.2 | 0.00 | 0.00 | 0.00 | 79 | 1008.4 |
| 20260508074007 | 43 | 144 | 3.5 | 5.2 | 0.00 | 0.00 | 0.00 | 78 | 1014.6 |
| 20260508073007 | 44 | 112 | 2.6 | 3.5 | 0.00 | 0.00 | 0.00 | 77 | 1014.8 |
| 20260508073002 | 44 | 112 | 1.7 | 3.5 | 0.00 | 0.00 | 0.00 | 77 | 1008.8 |
| 20260508072505 | 44 | 62 | 1.7 | 5.2 | 0.00 | 0.00 | 0.00 | 77 | 1014.8 |
| 20260508072006 | 44 | 62 | 2.6 | 5.2 | 0.00 | 0.00 | 0.00 | 77 | 1014.9 |
| 20260508071505 | 44 | 59 | 3.5 | 5.2 | 0.00 | 0.00 | 0.00 | 77 | 1015.0 |
| 20260508071006 | 44 | 54 | 3.5 | 5.2 | 0.00 | 0.00 | 0.00 | 77 | 1015.1 |
| 20260508070504 | 44 | 46 | 2.6 | 3.5 | 0.00 | 0.00 | 0.00 | 78 | 1015.4 |
| 20260508070004 | 44 | 24 | 0.0 | 3.5 | 0.00 | 0.00 | 0.00 | 77 | 1009.6 |
| 20260508065505 | 44 | 24 | 2.6 | 3.5 | 0.00 | 0.00 | 0.00 | 76 | 1015.6 |
| 20260508065006 | 45 | 22 | 1.7 | 3.5 | 0.00 | 0.00 | 0.00 | 73 | 1015.7 |
| 20260508064505 | 46 | 134 | 1.7 | 2.6 | 0.00 | 0.00 | 0.00 | 72 | 1015.1 |
| 20260508064503 | 46 | 134 | 1.7 | 2.6 | 0.00 | 0.00 | 0.00 | 72 | 1009.3 |
| 20260508064006 | 46 | 134 | 0.0 | 0.9 | 0.00 | 0.00 | 0.00 | 71 | 1014.8 |
| 20260508063508 | 46 | 134 | 0.0 | 1.7 | 0.00 | 0.00 | 0.00 | 71 | 1014.8 |
| 20260508063006 | 46 | 134 | 0.9 | 2.6 | 0.00 | 0.00 | 0.00 | 72 | 1014.8 |
| 20260508063002 | 46 | 134 | 0.0 | 2.6 | 0.00 | 0.00 | 0.00 | 72 | 1009.1 |
| 20260508062506 | 46 | 134 | 1.7 | 2.6 | 0.00 | 0.00 | 0.00 | 72 | 1014.7 |
| 20260508062005 | 46 | 134 | 0.9 | 3.5 | 0.00 | 0.00 | 0.00 | 71 | 1014.7 |
| 20260508061506 | 46 | 134 | 1.7 | 3.5 | 0.00 | 0.00 | 0.00 | 71 | 1014.6 |
| 20260508061503 | 46 | 134 | 1.7 | 3.5 | 0.00 | 0.00 | 0.00 | 71 | 1009.0 |
| 20260508061006 | 46 | 134 | 1.7 | 4.3 | 0.00 | 0.00 | 0.00 | 71 | 1014.6 |
| 20260508060004 | 47 | 136 | 1.7 | 6.1 | 0.00 | 0.00 | 0.00 | 70 | 1009.0 |
| 20260508055503 | 47 | 136 | 3.5 | 6.1 | 0.00 | 0.00 | 0.00 | 69 | 1014.8 |
| 20260508055004 | 47 | 82 | 2.6 | 4.3 | 0.00 | 0.00 | 0.00 | 68 | 1014.8 |
| 20260508054504 | 47 | 44 | 1.7 | 4.3 | 0.00 | 0.00 | 0.00 | 69 | 1015.0 |
| 20260508054005 | 47 | 44 | 2.6 | 7.0 | 0.00 | 0.00 | 0.00 | 68 | 1015.0 |
| 20260508053005 | 48 | 15 | 2.6 | 5.2 | 0.00 | 0.00 | 0.00 | 67 | 1015.4 |
| 20260508053002 | 48 | 15 | 2.6 | 5.2 | 0.00 | 0.00 | 0.00 | 67 | 1009.9 |
| 20260508052504 | 48 | 15 | 4.3 | 5.2 | 0.00 | 0.00 | 0.00 | 66 | 1015.1 |
| 20260508052004 | 48 | 92 | 0.9 | 3.5 | 0.00 | 0.00 | 0.00 | 64 | 1014.8 |
| 20260508051504 | 48 | 92 | 0.0 | 2.6 | 0.00 | 0.00 | 0.00 | 63 | 1014.6 |
| 20260508051502 | 48 | 92 | 0.0 | 2.6 | 0.00 | 0.00 | 0.00 | 63 | 1009.3 |
| 20260508051005 | 49 | 92 | 1.7 | 2.6 | 0.00 | 0.00 | 0.00 | 62 | 1014.4 |
| 20260508050504 | 49 | 92 | 0.0 | 3.5 | 0.00 | 0.00 | 0.00 | 61 | 1014.5 |
| 20260508050006 | 49 | 92 | 3.5 | 3.5 | 0.00 | 0.00 | 0.00 | 60 | 1014.5 |
| 20260508050002 | 49 | 92 | 2.6 | 3.5 | 0.00 | 0.00 | 0.00 | 60 | 1009.3 |
| 20260508045504 | 50 | 92 | 0.0 | 3.5 | 0.00 | 0.00 | 0.00 | 59 | 1014.4 |
| 20260508045005 | 50 | 92 | 1.7 | 7.8 | 0.00 | 0.00 | 0.00 | 59 | 1014.4 |
| 20260508044504 | 50 | 100 | 4.3 | 7.8 | 0.00 | 0.00 | 0.00 | 59 | 1014.4 |
| 20260508044502 | 50 | 100 | 3.5 | 7.8 | 0.00 | 0.00 | 0.00 | 59 | 1009.3 |
| 20260508043006 | 50 | 109 | 0.0 | 0.0 | 0.00 | 0.00 | 0.00 | 57 | 1014.5 |
| 20260508043002 | 50 | 109 | 0.0 | 0.0 | 0.00 | 0.00 | 0.00 | 57 | 1009.5 |
| 20260508042004 | 51 | 109 | 0.0 | 1.7 | 0.00 | 0.00 | 0.00 | 57 | 1014.3 |
| 20260508041505 | 51 | 109 | 0.9 | 2.6 | 0.00 | 0.00 | 0.00 | 55 | 1014.2 |
| 20260508041503 | 51 | 109 | 0.0 | 2.6 | 0.00 | 0.00 | 0.00 | 55 | 1009.3 |
| 20260508041004 | 51 | 109 | 1.7 | 2.6 | 0.00 | 0.00 | 0.00 | 53 | 1014.2 |
| 20260508040504 | 51 | 109 | 1.7 | 2.6 | 0.00 | 0.00 | 0.00 | 55 | 1014.2 |
| 20260508040006 | 51 | 109 | 0.0 | 2.6 | 0.00 | 0.00 | 0.00 | 55 | 1014.3 |
| 20260508040003 | 51 | 109 | 0.0 | 2.6 | 0.00 | 0.00 | 0.00 | 55 | 1009.5 |
| 20260508035505 | 51 | 109 | 0.0 | 6.1 | 0.00 | 0.00 | 0.00 | 56 | 1014.3 |
| 20260508034501 | 51 | 328 | 0.9 | 1.7 | 0.00 | 0.00 | 0.00 | 53 | 1009.8 |
| 20260508034004 | 51 | 328 | 0.0 | 1.7 | 0.00 | 0.00 | 0.00 | 54 | 1014.6 |
| 20260508033504 | 52 | 328 | 0.0 | 1.7 | 0.00 | 0.00 | 0.00 | 54 | 1014.7 |
| 20260508033057 | 52 | 328 | 0.9 | 1.7 | 0.00 | 0.00 | 0.00 | 53 | 1010.0 |
| 20260508033002 | 52 | 11 | 0.9 | 1.7 | 0.00 | 0.00 | 0.00 | 53 | 1014.7 |
| 20260508032504 | 52 | 11 | 0.0 | 3.5 | 0.00 | 0.00 | 0.00 | 51 | 1014.4 |
| 20260508031502 | 53 | 329 | 0.9 | 10.4 | 0.00 | 0.00 | 0.00 | 50 | 1009.6 |
| 20260508031005 | 53 | 15 | 4.3 | 13.0 | 0.00 | 0.00 | 0.00 | 49 | 1014.1 |
| 20260508030504 | 53 | 19 | 5.2 | 13.0 | 0.00 | 0.00 | 0.00 | 49 | 1014.1 |
| 20260508030006 | 53 | 43 | 7.8 | 12.2 | 0.00 | 0.00 | 0.00 | 50 | 1013.9 |
| 20260508030003 | 53 | 43 | 7.8 | 12.2 | 0.00 | 0.00 | 0.00 | 50 | 1009.3 |
| 20260508025504 | 53 | 43 | 7.0 | 11.3 | 0.00 | 0.00 | 0.00 | 50 | 1013.9 |
| 20260508025005 | 53 | 9 | 5.2 | 11.3 | 0.00 | 0.00 | 0.00 | 51 | 1014.0 |
| 20260508024504 | 53 | 26 | 7.0 | 15.6 | 0.00 | 0.00 | 0.00 | 52 | 1013.9 |
| 20260508024502 | 53 | 26 | 7.0 | 15.6 | 0.00 | 0.00 | 0.00 | 52 | 1009.3 |
| 20260508024004 | 53 | 13 | 9.6 | 15.6 | 0.00 | 0.00 | 0.00 | 51 | 1014.0 |
| 20260508023500 | 54 | 355 | 3.5 | 8.7 | 0.00 | 0.00 | 0.00 | 51 | 1013.9 |
| 20260508023004 | 54 | 305 | 0.9 | 1.7 | 0.00 | 0.00 | 0.00 | 52 | 1013.7 |
| 20260508023002 | 54 | 305 | 0.9 | 1.7 | 0.00 | 0.00 | 0.00 | 52 | 1009.2 |
| 20260508022504 | 54 | 305 | 0.0 | 4.3 | 0.00 | 0.00 | 0.00 | 49 | 1013.3 |
| 20260508022004 | 54 | 305 | 1.7 | 4.3 | 0.00 | 0.00 | 0.00 | 57 | 1013.3 |